Temp
-13 -13 -13 -13 -13 -13 -13 -13 -13 -12 -13 -13 -13 -12 -12 -13 -13 -13 -13 -14 -14 -14 -14 -14 -14 -14 -14 -14 -14 -15 -15 -15 -14 -15 -15 -16 -16 -16 -16 -16 -16 -15 -15 -15
-13 -13 -13 -13 -13 -13 -13 -13 -13 -12 -12 -13 -12 -12 -13 -13 -13 -13 -13 -13 -13 -13 -14 -14 -14 -14 -14 -15 -15 -15 -15 -15 -15 -16 -16 -16 -15 -16 -16 -15 -15 -15 -16 -16
-13 -13 -13 -13 -13 -13 -13 -13 -13 -13 -12 -12 -12 -12 -13 -13 -13 -13 -13 -13 -14 -14 -14 -14 -14 -14 -15 -15 -15 -16 -16 -16 -16 -16 -16 -15 -15 -15 -15 -15 -16 -16 -17 -17
-13 -13 -13 -13 -13 -13 -13 -13 -13 -12 -12 -12 -13 -13 -13 -13 -13 -14 -14 -14 -14 -14 -14 -14 -14 -15 -15 -15 -16 -16 -16 -16 -16 -16 -15 -16 -16 -16 -16 -17 -17 -17 -18 -18
-13 -13 -13 -13 -13 -13 -13 -13 -13 -13 -12 -13 -13 -13 -13 -13 -14 -14 -14 -14 -14 -14 -14 -15 -15 -15 -15 -15 -15 -15 -16 -16 -16 -16 -16 -16 -16 -17 -17 -17 -18 -18 -19 -19
-14 -14 -13 -13 -13 -13 -13 -13 -13 -13 -13 -13 -13 -13 -13 -13 -14 -14 -14 -14 -14 -15 -15 -15 -15 -15 -15 -15 -15 -15 -16 -16 -16 -16 -16 -17 -16 -17 -17 -18 -18 -19 -19 -19
-14 -14 -13 -13 -13 -13 -13 -13 -13 -13 -13 -13 -13 -13 -13 -14 -14 -14 -14 -14 -14 -15 -15 -15 -15 -15 -15 -16 -16 -16 -16 -16 -16 -16 -17 -17 -17 -17 -17 -18 -18 -19 -19 -19
-14 -14 -14 -14 -13 -13 -13 -14 -14 -13 -13 -13 -14 -14 -14 -14 -14 -14 -14 -14 -15 -15 -15 -15 -15 -15 -15 -15 -16 -16 -16 -16 -16 -16 -17 -17 -18 -19 -19 -20 -20 -20 -20 -21
-14 -14 -14 -14 -14 -14 -14 -14 -14 -14 -14 -14 -14 -14 -14 -15 -14 -14 -14 -15 -15 -15 -15 -15 -15 -15 -16 -15 -15 -16 -16 -17 -17 -18 -19 -19 -19 -20 -20 -21 -21 -21 -21 -21
-14 -14 -14 -14 -14 -14 -14 -14 -14 -14 -14 -14 -14 -14 -15 -15 -15 -14 -14 -15 -15 -15 -15 -15 -15 -15 -15 -16 -17 -17 -18 -18 -19 -19 -19 -19 -20 -20 -21 -21 -22 -22 -22 -22
-15 -15 -14 -14 -14 -14 -14 -14 -14 -14 -14 -14 -14 -14 -15 -15 -15 -15 -15 -15 -15 -15 -15 -16 -16 -16 -17 -17 -18 -18 -18 -18 -19 -20 -20 -20 -21 -21 -22 -22 -22 -22 -22 -23
-15 -15 -15 -15 -15 -15 -15 -15 -15 -15 -14 -14 -15 -14 -15 -15 -15 -15 -16 -16 -16 -16 -16 -17 -17 -17 -17 -18 -18 -18 -19 -20 -20 -21 -21 -21 -21 -22 -22 -22 -23 -23 -23 -24
-15 -15 -15 -15 -15 -15 -15 -16 -16 -16 -15 -16 -15 -16 -16 -16 -16 -16 -16 -16 -17 -17 -17 -17 -17 -17 -17 -18 -19 -19 -20 -20 -20 -21 -21 -22 -22 -22 -23 -24 -24 -24 -24 -25
-15 -16 -16 -16 -16 -15 -15 -16 -16 -16 -16 -16 -16 -15 -17 -16 -16 -16 -17 -17 -17 -17 -17 -17 -17 -17 -17 -18 -19 -20 -21 -21 -21 -21 -22 -22 -23 -24 -24 -24 -25 -25 -26 -27
-15 -16 -16 -16 -16 -16 -15 -16 -17 -17 -17 -16 -17 -16 -17 -16 -17 -17 -17 -17 -17 -17 -17 -17 -17 -18 -18 -19 -20 -21 -21 -21 -22 -23 -24 -24 -25 -25 -25 -25 -26 -27 -28 -29
-16 -16 -16 -16 -16 -16 -16 -17 -17 -17 -17 -17 -16 -17 -17 -17 -17 -17 -17 -17 -17 -17 -17 -17 -18 -18 -20 -21 -21 -21 -22 -22 -23 -24 -25 -25 -25 -26 -26 -27 -28 -29 -30 -31
-16 -16 -16 -16 -16 -16 -16 -16 -17 -17 -17 -17 -17 -17 -17 -17 -17 -17 -17 -17 -17 -17 -17 -18 -19 -21 -21 -21 -22 -22 -22 -23 -24 -24 -25 -26 -26 -26 -28 -29 -30 -31 -31 -31
-16 -16 -16 -16 -16 -16 -16 -16 -16 -17 -17 -17 -17 -17 -17 -17 -17 -18 -18 -17 -18 -18 -19 -20 -21 -22 -22 -23 -22 -23 -24 -24 -25 -26 -26 -26 -27 -28 -29 -30 -31 -31 -31 -31
-17 -17 -17 -16 -16 -16 -17 -17 -17 -17 -17 -17 -17 -17 -18 -18 -17 -18 -18 -19 -19 -19 -20 -21 -22 -22 -23 -23 -23 -24 -25 -26 -26 -27 -27 -27 -29 -30 -31 -31 -31 -31 -31 -31
-16 -17 -17 -17 -17 -16 -18 -18 -18 -17 -17 -17 -17 -17 -18 -18 -18 -18 -19 -19 -20 -21 -22 -22 -23 -22 -23 -24 -24 -25 -26 -27 -27 -27 -27 -29 -30 -31 -30 -31 -31 -31 -31 -31
-17 -17 -17 -18 -17 -17 -18 -18 -17 -17 -17 -17 -17 -18 -18 -19 -19 -19 -20 -20 -21 -22 -23 -23 -23 -23 -23 -24 -25 -27 -27 -28 -28 -28 -29 -30 -31 -31 -31 -31 -31 -31 -31 -31
-17 -17 -17 -17 -18 -17 -18 -18 -17 -17 -17 -18 -18 -19 -19 -19 -19 -20 -21 -22 -23 -23 -23 -24 -24 -24 -24 -26 -27 -28 -28 -28 -29 -30 -30 -31 -31 -31 -31 -31 -31 -31 -32 -32
-18 -18 -18 -18 -18 -18 -18 -18 -18 -18 -19 -19 -20 -19 -19 -21 -21 -22 -22 -23 -23 -23 -24 -24 -25 -25 -27 -27 -28 -28 -29 -29 -30 -30 -31 -31 -31 -31 -31 -31 -31 -32 -33 -34
-18 -18 -18 -18 -19 -19 -19 -19 -19 -20 -20 -20 -20 -21 -21 -22 -22 -23 -23 -23 -24 -25 -25 -25 -26 -27 -28 -28 -29 -29 -30 -30 -30 -31 -31 -31 -31 -31 -31 -32 -32 -33 -34 -35
-18 -18 -18 -18 -19 -18 -19 -19 -20 -20 -20 -20 -21 -21 -22 -22 -23 -23 -24 -24 -25 -25 -26 -26 -27 -28 -28 -29 -29 -30 -30 -30 -31 -31 -31 -31 -32 -32 -32 -32 -32 -34 -35 -35
-18 -19 -18 -18 -19 -19 -19 -19 -19 -19 -20 -21 -21 -22 -23 -23 -23 -24 -24 -25 -25 -26 -27 -27 -28 -29 -29 -30 -30 -30 -31 -31 -31 -31 -32 -32 -32 -32 -32 -32 -33 -35 -35 -36
Height
5826 5826 5826 5827 5827 5827 5827 5827 5827 5828 5828 5827 5827 5827 5826 5824 5824 5823 5821 5820 5818 5816 5814 5812 5809 5806 5803 5800 5795 5790 5786 5781 5777 5774 5770 5765 5760 5755 5750 5744 5739 5733 5728 5723
5826 5825 5825 5826 5826 5826 5826 5827 5827 5826 5826 5825 5823 5823 5822 5821 5819 5817 5815 5814 5814 5813 5810 5807 5804 5800 5796 5791 5787 5783 5779 5774 5769 5764 5760 5754 5749 5745 5739 5734 5728 5723 5718 5713
5823 5824 5824 5824 5824 5824 5824 5824 5824 5823 5821 5821 5820 5819 5818 5817 5814 5812 5811 5811 5809 5807 5803 5800 5797 5793 5789 5784 5779 5775 5770 5765 5761 5757 5751 5745 5739 5734 5729 5723 5717 5711 5705 5700
5821 5821 5821 5821 5822 5821 5821 5820 5819 5819 5818 5816 5816 5816 5814 5812 5810 5809 5807 5805 5803 5799 5797 5793 5789 5785 5781 5776 5771 5767 5763 5757 5752 5746 5740 5734 5728 5722 5716 5711 5705 5699 5692 5686
5819 5818 5818 5818 5819 5818 5817 5816 5815 5814 5813 5812 5811 5811 5809 5807 5805 5803 5801 5799 5796 5792 5788 5784 5780 5776 5771 5766 5762 5756 5751 5745 5739 5733 5727 5722 5716 5710 5703 5695 5690 5684 5678 5670
5815 5814 5814 5814 5814 5813 5813 5811 5810 5809 5809 5808 5807 5806 5803 5802 5799 5796 5793 5790 5787 5783 5779 5774 5770 5765 5760 5755 5750 5745 5739 5733 5727 5721 5714 5707 5699 5692 5686 5680 5672 5665 5658 5651
5810 5810 5809 5809 5808 5807 5806 5806 5805 5805 5804 5803 5801 5799 5797 5796 5792 5788 5784 5781 5777 5772 5768 5763 5758 5753 5748 5742 5737 5731 5725 5720 5713 5706 5699 5692 5684 5677 5669 5660 5652 5645 5639 5632
5806 5806 5805 5803 5803 5802 5801 5801 5800 5799 5798 5798 5795 5791 5791 5788 5784 5780 5777 5773 5768 5763 5758 5754 5749 5744 5739 5733 5728 5723 5716 5710 5702 5694 5686 5678 5668 5660 5652 5644 5635 5627 5618 5612
5803 5803 5801 5800 5799 5798 5797 5796 5795 5793 5792 5791 5791 5786 5784 5779 5776 5773 5769 5765 5760 5756 5751 5747 5742 5736 5730 5724 5719 5712 5704 5696 5688 5679 5670 5660 5651 5642 5634 5625 5615 5607 5598 5590
5800 5800 5799 5798 5796 5795 5793 5792 5790 5788 5786 5784 5784 5784 5775 5773 5769 5765 5761 5757 5753 5747 5742 5737 5731 5726 5720 5714 5708 5700 5691 5682 5672 5663 5655 5645 5635 5625 5616 5606 5598 5588 5578 5567
5797 5797 5796 5793 5792 5790 5789 5786 5784 5782 5779 5775 5774 5780 5771 5766 5761 5758 5754 5749 5744 5738 5733 5728 5722 5715 5708 5699 5691 5683 5676 5668 5658 5647 5638 5629 5618 5608 5598 5588 5578 5566 5555 5545
5794 5793 5791 5789 5787 5784 5782 5779 5777 5774 5773 5770 5765 5770 5763 5757 5753 5750 5746 5740 5734 5728 5721 5716 5709 5702 5694 5687 5679 5670 5661 5652 5643 5634 5623 5612 5600 5589 5578 5566 5554 5544 5532 5520
5791 5790 5787 5784 5783 5779 5776 5773 5770 5766 5763 5763 5757 5759 5753 5746 5742 5739 5735 5730 5724 5718 5712 5705 5698 5690 5682 5673 5665 5656 5646 5636 5625 5614 5604 5592 5580 5568 5555 5545 5533 5519 5505 5493
5786 5784 5782 5780 5775 5773 5770 5765 5761 5756 5753 5747 5752 5744 5746 5739 5735 5732 5725 5719 5713 5705 5699 5692 5684 5677 5669 5660 5651 5641 5629 5617 5606 5594 5583 5573 5560 5547 5535 5522 5509 5495 5482 5471
5781 5779 5776 5772 5768 5766 5764 5758 5752 5748 5745 5739 5740 5737 5731 5730 5726 5721 5715 5709 5702 5694 5688 5680 5673 5664 5653 5644 5634 5623 5611 5599 5588 5576 5564 5552 5540 5527 5513 5499 5484 5472 5462 5454
5774 5770 5768 5767 5760 5757 5758 5750 5745 5740 5737 5733 5729 5728 5724 5721 5716 5711 5705 5697 5690 5682 5674 5666 5656 5645 5635 5625 5615 5605 5593 5580 5569 5557 5544 5530 5516 5503 5487 5474 5465 5455 5447 5440
5768 5761 5756 5757 5752 5749 5750 5743 5735 5732 5730 5727 5723 5720 5717 5711 5706 5701 5694 5686 5679 5669 5660 5647 5637 5628 5618 5607 5597 5585 5573 5561 5548 5537 5525 5513 5499 5484 5470 5458 5449 5442 5435 5428
5760 5754 5749 5744 5741 5740 5744 5731 5725 5723 5725 5721 5717 5713 5708 5702 5696 5690 5681 5671 5660 5649 5640 5631 5621 5610 5599 5588 5577 5567 5556 5545 5533 5520 5509 5495 5480 5466 5455 5446 5438 5431 5423 5415
5753 5746 5739 5734 5727 5727 5734 5724 5720 5716 5720 5713 5709 5704 5698 5691 5683 5675 5663 5653 5643 5633 5622 5611 5602 5592 5581 5570 5561 5551 5538 5526 5516 5504 5489 5476 5463 5452 5444 5435 5427 5419 5411 5402
5746 5739 5734 5726 5718 5716 5718 5712 5711 5709 5707 5702 5696 5689 5681 5670 5662 5657 5646 5636 5626 5615 5605 5596 5586 5575 5565 5554 5542 5533 5521 5509 5497 5484 5471 5460 5450 5441 5433 5424 5416 5406 5397 5387
5735 5728 5723 5716 5711 5712 5707 5703 5700 5696 5693 5686 5680 5672 5665 5657 5650 5641 5631 5621 5612 5604 5594 5584 5572 5560 5549 5539 5530 5517 5505 5494 5481 5468 5456 5447 5438 5430 5421 5413 5403 5394 5383 5373
5726 5719 5711 5706 5706 5705 5699 5695 5692 5687 5681 5674 5668 5661 5654 5646 5637 5627 5616 5607 5597 5589 5577 5566 5557 5545 5534 5524 5514 5502 5490 5478 5467 5455 5445 5437 5428 5420 5411 5402 5391 5380 5370 5359
5717 5712 5703 5700 5700 5696 5690 5686 5681 5675 5669 5662 5654 5648 5640 5631 5622 5612 5603 5593 5584 5573 5561 5552 5541 5530 5517 5506 5495 5486 5476 5465 5454 5444 5435 5427 5418 5410 5401 5391 5381 5368 5357 5348
5707 5703 5697 5691 5695 5685 5681 5675 5669 5662 5654 5647 5641 5633 5623 5615 5604 5595 5586 5574 5564 5555 5544 5534 5523 5513 5503 5491 5481 5469 5461 5452 5443 5434 5426 5418 5410 5401 5391 5381 5369 5358 5348 5339
5698 5693 5688 5686 5683 5675 5671 5664 5658 5650 5641 5632 5625 5618 5608 5598 5589 5579 5571 5559 5548 5538 5527 5516 5506 5497 5488 5478 5468 5458 5450 5441 5432 5424 5417 5409 5401 5392 5383 5371 5359 5348 5338 5330
5686 5682 5676 5671 5667 5660 5656 5649 5641 5634 5627 5619 5609 5599 5589 5581 5572 5562 5554 5543 5531 5520 5510 5501 5490 5480 5472 5462 5453 5446 5438 5430 5423 5415 5408 5402 5394 5385 5375 5364 5351 5338 5329 5322
Wind_Speed
0 1 2 2 3 3 4 7 7 7 8 11 10 10 12 14 14 15 15 15 17 19 21 23 27 28 29 32 33 34 38 40 41 41 43 47 50 52 53 56 54 54 55 56
2 2 1 3 4 4 5 7 7 8 6 9 11 11 12 13 15 18 19 19 19 21 25 29 30 29 31 31 32 37 40 40 40 44 49 51 51 53 55 55 55 56 56 56
4 4 5 6 8 9 9 9 9 11 13 13 15 15 14 16 18 21 21 22 23 25 29 31 31 32 34 34 36 39 42 43 45 48 50 50 52 54 55 55 56 58 58 60
6 7 9 10 11 12 13 14 13 14 15 16 17 17 17 18 19 19 22 25 27 30 30 31 33 33 34 36 38 42 44 45 47 48 48 50 53 55 56 55 57 59 60 61
12 13 14 14 14 15 16 17 18 18 17 18 17 18 18 18 19 22 27 30 31 31 33 34 36 38 39 42 44 45 46 46 46 48 51 52 55 56 58 59 62 62 62 63
14 15 16 17 16 18 19 20 21 20 18 18 19 20 20 22 25 30 33 34 32 34 35 38 40 42 44 45 44 44 45 47 50 53 56 58 62 64 66 67 69 71 73 73
19 20 20 20 20 20 20 19 22 23 21 19 20 22 24 26 31 35 37 37 37 39 40 42 44 45 45 46 48 50 51 53 57 60 62 64 66 69 72 73 74 76 79 79
16 15 16 18 20 21 21 20 19 21 22 22 23 27 29 31 34 36 37 37 39 41 41 43 43 44 46 49 51 52 53 57 62 65 66 68 71 73 74 74 77 78 79 79
10 11 13 14 15 17 17 17 19 21 22 22 23 29 30 32 34 36 37 38 39 40 41 40 43 46 49 50 52 55 59 63 65 67 68 70 72 73 74 75 77 78 82 84
11 12 14 14 15 17 19 20 22 24 26 27 25 23 30 30 33 37 37 38 39 37 38 41 46 49 51 54 54 57 60 63 66 70 71 72 74 76 77 79 82 84 84 86
14 16 18 19 20 21 22 23 25 26 28 31 31 20 29 32 34 35 35 34 37 39 43 47 49 50 53 55 60 63 65 68 69 70 72 74 75 77 79 80 82 85 89 91
16 17 18 21 21 22 24 25 27 29 30 31 34 26 30 36 34 32 33 37 40 46 49 49 51 54 58 62 64 67 69 69 71 73 76 77 78 78 80 85 88 89 90 90
18 20 22 26 26 27 27 28 29 30 33 31 37 33 31 35 35 36 40 42 45 47 50 52 57 59 62 64 67 69 71 72 74 75 76 76 76 82 86 89 92 93 91 86
24 26 27 28 29 29 30 33 33 36 38 42 33 36 30 34 37 38 42 45 48 52 56 58 60 62 65 67 69 72 74 76 77 78 77 79 82 85 90 95 93 87 78 67
30 32 32 33 32 32 31 33 36 39 40 42 36 35 38 37 39 43 44 48 52 55 57 60 64 67 68 70 73 74 76 78 77 76 80 84 84 87 92 93 84 72 65 56
35 39 40 35 38 35 30 31 34 37 38 39 39 39 40 42 46 48 51 54 56 59 63 65 68 71 71 74 79 81 80 78 79 83 86 92 95 94 94 82 69 63 53 48
38 44 46 42 40 39 31 30 36 37 35 38 40 40 43 46 50 52 54 57 59 65 68 71 72 72 76 79 84 84 84 84 86 89 93 92 91 92 74 65 57 52 51 50
42 48 50 50 47 43 27 33 39 40 35 38 41 42 44 49 52 53 57 62 68 72 72 73 75 76 76 82 86 86 84 84 86 86 87 91 84 69 61 53 51 51 51 49
45 51 51 52 53 47 24 28 33 37 33 38 41 43 48 52 57 60 64 68 72 75 76 78 82 80 80 83 86 87 84 83 85 89 88 82 67 54 50 52 51 49 51 52
49 50 49 50 50 47 36 33 32 35 38 40 45 50 54 59 64 67 71 74 75 76 78 81 82 85 82 87 89 88 83 84 87 86 78 65 52 49 50 49 52 54 56 58
48 46 43 44 44 39 34 37 38 42 47 50 53 57 60 64 67 71 77 74 76 75 76 79 84 90 88 90 88 82 84 86 84 74 63 53 49 50 50 52 55 57 58 58
42 40 41 40 34 32 34 39 41 46 50 55 57 61 65 67 70 75 72 68 73 81 79 75 78 86 89 85 79 80 80 77 73 63 54 49 49 48 50 53 56 58 56 52
34 33 35 34 31 34 38 42 47 52 56 59 63 66 67 72 75 76 73 75 78 80 76 78 83 82 81 77 79 76 75 74 63 55 48 48 46 48 51 54 57 56 52 47
32 27 33 39 34 41 46 49 54 57 61 65 67 69 73 75 76 77 75 77 77 76 78 81 79 80 77 80 76 72 72 64 56 47 46 44 46 49 51 54 56 52 47 43
33 35 40 42 42 48 49 54 56 61 66 70 72 72 75 77 76 77 76 75 77 79 80 77 83 78 76 76 72 68 63 56 48 44 43 43 46 48 49 53 53 49 46 43
42 42 45 49 52 56 59 62 66 70 71 72 75 76 77 77 79 78 76 77 79 80 78 81 80 75 71 69 67 60 53 49 42 41 40 43 46 46 48 50 50 47 43 39
Wind_Direction
204 86 37 50 30 356 320 308 298 261 262 276 263 272 279 292 303 301 296 297 303 308 309 304 302 300 300 300 297 296 295 296 297 298 301 301 302 304 305 305 307 308 307 307
238 249 292 307 305 301 300 285 279 275 266 269 279 280 281 289 298 296 299 304 309 306 301 296 294 294 298 295 294 299 302 300 300 304 303 302 302 302 302 305 305 303 301 300
245 246 258 261 274 282 284 283 282 286 288 283 284 287 293 295 293 293 298 299 299 295 292 294 299 298 300 300 301 301 300 300 297 298 300 301 301 301 300 300 299 299 298 297
267 261 266 271 278 285 291 294 294 292 288 290 286 287 291 290 291 293 294 299 299 297 298 300 299 298 298 298 297 297 299 300 299 299 300 298 297 296 295 294 295 294 290 288
268 271 271 275 280 283 287 291 296 295 295 287 282 283 285 288 292 300 306 307 303 301 302 301 301 301 301 302 303 303 301 301 301 300 298 297 298 295 294 292 295 297 295 294
278 283 283 284 283 282 281 282 290 295 295 288 281 282 285 291 299 304 306 306 305 304 302 304 304 304 304 305 303 302 302 303 302 301 302 303 303 303 301 297 295 296 296 295
284 284 283 281 282 283 283 279 278 284 288 283 281 280 286 294 299 304 305 306 308 306 305 306 306 307 307 305 306 306 307 305 306 306 305 303 300 297 296 297 296 295 295 296
291 292 285 281 281 283 284 287 283 280 282 286 287 291 297 300 301 301 302 304 304 303 303 304 305 305 305 304 305 303 302 302 303 302 299 298 298 298 298 297 297 298 298 297
309 311 309 305 299 292 290 288 286 283 284 286 288 294 298 300 299 301 302 301 300 299 301 302 302 301 300 300 300 301 303 302 301 300 298 297 296 297 298 297 298 299 298 296
315 317 316 312 308 302 299 296 294 294 294 293 296 301 302 298 298 299 300 297 299 299 299 300 300 299 299 300 299 298 299 300 299 298 299 299 299 299 299 299 298 298 297 299
312 311 308 305 305 302 300 298 298 297 297 298 298 302 295 295 296 298 299 297 294 293 295 297 299 300 301 301 303 304 303 302 302 303 303 302 301 299 299 299 300 302 304 304
311 310 306 305 303 302 301 299 296 295 295 294 297 307 300 298 298 299 297 298 298 301 303 304 306 306 304 304 305 306 307 307 305 305 305 304 303 302 301 302 305 306 306 305
317 312 308 306 305 303 301 299 296 293 292 296 296 307 304 299 301 304 307 306 305 305 306 307 308 307 307 308 308 308 308 308 306 306 305 304 303 304 305 307 308 309 308 305
323 318 318 316 308 302 300 296 294 291 293 292 304 298 297 297 302 307 307 306 309 309 309 309 307 307 308 310 310 310 311 311 310 307 305 305 307 307 305 308 311 310 308 306
322 322 321 318 311 306 306 294 291 292 292 295 297 297 295 302 307 309 308 309 309 308 308 308 308 308 309 311 313 314 313 311 310 309 311 313 312 312 314 314 312 310 308 308
324 322 323 322 318 315 313 296 289 286 287 290 294 301 300 303 303 308 310 309 309 309 309 310 310 311 311 313 315 315 314 314 313 314 315 316 317 315 317 314 311 311 313 310
324 325 320 322 314 316 317 295 285 289 290 295 299 301 303 304 307 308 306 307 307 307 311 313 314 313 310 312 316 319 318 317 315 314 316 317 317 316 314 313 314 313 310 308
321 320 320 319 318 317 323 292 284 286 296 298 300 304 305 306 306 308 309 310 312 313 313 313 314 312 310 313 319 318 317 315 311 313 318 320 316 315 314 315 313 310 309 307
314 317 316 317 315 317 323 290 291 293 299 297 302 306 306 306 307 313 314 314 313 313 315 315 315 310 308 311 318 317 315 313 313 316 322 319 316 317 315 314 312 311 311 310
310 308 307 308 309 314 320 310 306 305 305 308 310 308 310 313 313 314 314 314 315 316 313 311 311 305 305 314 318 314 316 316 318 322 323 318 318 317 317 316 316 316 314 312
307 305 305 300 302 313 306 307 311 310 310 313 313 312 310 309 311 314 313 314 313 311 307 303 304 302 308 314 313 315 316 318 322 322 321 320 319 319 319 320 319 317 315 312
305 303 300 300 304 311 307 307 309 310 311 311 310 308 307 308 311 312 313 303 301 305 309 306 302 308 310 311 312 318 319 322 323 321 320 318 319 320 321 321 321 320 317 316
305 295 293 297 306 305 302 304 305 308 310 309 307 308 310 313 313 310 307 301 298 306 306 302 304 307 312 310 312 320 319 322 320 320 319 319 320 321 322 323 324 322 321 320
306 292 294 296 305 302 305 306 308 309 307 306 309 312 311 310 308 308 307 309 309 306 305 306 307 314 312 311 317 320 320 319 319 318 319 320 321 323 325 326 326 325 324 323
306 299 295 299 304 302 305 305 304 305 306 310 311 309 306 306 306 308 308 307 306 307 306 306 311 314 312 312 314 317 317 316 317 318 319 320 322 325 327 329 329 327 326 326
303 304 305 307 306 307 307 307 306 308 312 310 308 306 305 306 306 307 308 307 306 307 307 308 310 311 309 311 313 315 314 316 314 317 319 321 325 327 330 332 332 331 332 331